Downstream station:
SHEF ID: OSLK1 LABETTE C NR OSWEGO, KS
STATION TYPE:
Regulating: Stage = 20.00, Flow = 5530
STAGE RIV-FLOW BAT-LOAD
ft cfs volt
Ccp-Rev Ccp-Rev Ccp-Rev
(US/Central)
04/06 00:00 6.20 47 12.45
04/06 01:00 6.19 46 12.43
04/06 02:00 6.18 45 12.40
04/06 03:00 6.16 43 12.37
04/06 04:00 6.15 42 12.34
04/06 05:00 6.14 41 12.31
04/06 06:00 6.13 40 12.29
04/06 07:00 6.13 40 12.26
04/06 08:00 6.12 39 12.24
04/06 09:00 6.12 39 12.29
04/06 10:00 6.11 38 12.48
04/06 11:00 6.11 38 12.79
04/06 12:00 6.09 36 13.57
04/06 13:00 6.09 36 13.91
04/06 14:00 5.35 1 13.84
04/06 15:00 5.35 1 13.72
04/06 16:00 5.34 1 13.68
04/06 17:00 5.34 1 13.78
04/06 18:00 5.34 1 13.72
04/06 19:00 5.35 1 13.67
04/06 20:00 5.35 1 13.11
04/06 21:00 5.35 1 12.54
04/06 22:00 5.35 1 12.51
04/06 23:00 5.35 1 12.48